Regional Weather Roundup
Issued by NWS

Home | Current Version | Previous Version | Text Only | Print | Product List | Glossary Off
Versions: 1 2 3 4 5 6 7 8 9 10 11 12 13 14 15 16 17 18 19 20 21 22 23 24 25 26 27 28 29 30 31 32 33 34 35 36 37 38 39 40 41 42 43 44 45 46 47 48 49 50

000
ASUS43 KLMK 271002
RWRKY
KENTUCKY REGIONAL WEATHER ROUNDUP
NATIONAL WEATHER SERVICE LOUISVILLE KY
600 AM EDT FRI MAR 27 2015

NOTE "FAIR" INDICATES FEW OR NO CLOUDS BELOW 12,000 FEET
WITH NO SIGNIFICANT WEATHER AND/OR OBSTRUCTIONS TO VISIBILITY.

KYZ001>023-026-027-061>063-070>075-271100-
WESTERN AND SOUTH CENTRAL KENTUCKY

CITY           SKY/WX    TMP DP  RH WIND       PRES   REMARKS
PADUCAH        CLOUDY    35  32  88 W3        30.01S
HENDERSON      PTCLDY    36  30  80 NW7       30.01R WCI  30
OWENSBORO      CLEAR     33  32  96 NW5       30.00R WCI  28
HOPKINSVILLE   CLEAR     34  32  92 NW7       29.99R WCI  28
BOWLING GREEN  CLEAR     35  31  85 CALM      29.97R
GLASGOW        NOT AVBL
$$

KYZ024-025-028>034-038-045-046-053-271100-
NORTH CENTRAL KENTUCKY

CITY           SKY/WX    TMP DP  RH WIND       PRES   REMARKS
LOUISVILLE/SDF CLEAR     36  29  75 N8        29.97R WCI  30
LOUISVILLE/LOU CLEAR     34  29  82 N3        29.97S
FORT KNOX      CLEAR     31  29  94 CALM      29.94S
$$

KYZ035>037-039>044-047>052-055>060-089>105-271100-
NORTHEAST KENTUCKY

CITY           SKY/WX    TMP DP  RH WIND       PRES   REMARKS
LEXINGTON      CLOUDY    37  33  85 N10       29.92F WCI  30
COVINGTON      PTCLDY    32  23  69 N6        29.95S WCI  26
FRANKFORT      CLEAR     35  31  85 N6        29.93F WCI  30
$$

KYZ054-064>069-076>088-106>120-271100-
SOUTHEAST KENTUCKY

CITY           SKY/WX    TMP DP  RH WIND       PRES   REMARKS
JACKSON        CLOUDY    37  33  85 N6        29.88F WCI  32
LONDON         CLOUDY    39  32  76 N7        29.89F WCI  34
SOMERSET       NOT AVBL
MIDDLESBORO    CLOUDY    40  38  91 N7        29.87S
MONTICELLO     PTSUNNY   37  35  92 N3        29.95R
$$




USA.gov is the U.S. government's official web portal to all federal, state and local government web resources and services.